EW2082 Weather Reports


Display with metric or nautical units.
time (UTC)temp
F
wind
direction
speed
MPH
gust
MPH
rain 1hr
in
rain 24hr
in
rain mn
in
humidity
%
barometer
mb
20260903005005 77 20 0.0 2.0 0.00 0.00 0.00 61 1013.6
20260903002004 78 45 0.0 4.0 0.00 0.00 0.00 63 1013.6
20260903001004 79 115 0.0 3.0 0.00 0.00 0.00 61 1013.6
20260903000005 79 329 0.0 4.0 0.00 0.00 0.00 61 1013.7
20260902235004 80 240 0.0 3.0 0.00 0.00 0.00 59 1013.7
20260902234004 80 333 0.0 5.0 0.00 0.00 0.00 59 1013.7
20260902233004 80 26 0.0 5.0 0.00 0.00 0.00 59 1013.6
20260902232005 80 23 0.0 5.0 0.00 0.00 0.00 58 1013.6
20260902230005 81 113 0.0 4.0 0.00 0.00 0.00 54 1013.7
20260902225004 82 1 2.0 6.0 0.00 0.00 0.00 50 1013.9
20260902224004 83 30 0.0 4.0 0.00 0.00 0.00 46 1013.9
20260902223004 83 2 0.0 2.0 0.00 0.00 0.00 44 1013.9
20260902222004 83 287 2.0 3.0 0.00 0.00 0.00 40 1014.3
20260902214004 83 333 0.0 2.0 0.00 0.00 0.00 47 1014.7
20260902213005 83 12 0.0 6.0 0.00 0.00 0.00 49 1014.9
20260902212004 83 87 0.0 1.0 0.00 0.00 0.00 49 1015.0
20260902211004 83 271 1.0 2.0 0.00 0.00 0.00 48 1015.1
20260902210005 84 35 0.0 2.0 0.00 0.00 0.00 47 1015.0
20260902205004 84 50 0.0 3.0 0.00 0.00 0.00 51 1015.0
20260902204005 84 201 0.0 0.0 0.00 0.00 0.00 52 1015.0
20260902203004 83 178 0.0 0.0 0.00 0.00 0.00 51 1015.1
20260902202004 84 130 0.0 1.0 0.00 0.00 0.00 52 1015.0
20260902201004 83 135 0.0 5.0 0.00 0.00 0.00 50 1015.3
20260902195004 83 171 0.0 1.0 0.00 0.00 0.00 51 1015.5
20260902194004 83 172 0.0 3.0 0.00 0.00 0.00 52 1015.5
20260902193004 82 238 0.0 3.0 0.00 0.00 0.00 51 1015.6
20260902192005 82 9 0.0 2.0 0.00 0.00 0.00 52 1015.7
20260902191004 82 168 0.0 2.0 0.00 0.00 0.00 51 1015.9
20260902190005 81 172 0.0 3.0 0.00 0.00 0.00 53 1016.0
20260902185004 81 156 0.0 3.0 0.00 0.00 0.00 49 1016.0
20260902184004 81 168 0.0 1.0 0.00 0.00 0.00 54 1016.0
20260902183004 80 173 0.0 4.0 0.00 0.00 0.00 53 1016.0
20260902182004 81 99 0.0 3.0 0.00 0.00 0.00 55 1016.0
20260902181005 80 172 0.0 4.0 0.00 0.00 0.00 56 1015.9
20260902180007 80 170 3.0 4.0 0.00 0.00 0.00 56 1016.0
20260902175004 79 155 0.0 2.0 0.00 0.00 0.00 58 1016.1
20260902174004 79 170 0.0 3.0 0.00 0.00 0.00 59 1016.1
20260902173004 78 169 0.0 2.0 0.00 0.00 0.00 60 1016.1
20260902172004 78 172 0.0 3.0 0.00 0.00 0.00 60 1015.9
20260902171004 78 167 0.0 1.0 0.00 0.00 0.00 63 1015.9
20260902170004 77 171 0.0 3.0 0.00 0.00 0.00 63 1015.8
20260902165004 77 55 0.0 1.0 0.00 0.00 0.00 64 1015.8
20260902164004 76 171 0.0 3.0 0.00 0.00 0.00 65 1015.6
20260902161003 75 165 0.0 1.0 0.00 0.00 0.00 67 1015.7
20260902153005 74 176 0.0 2.0 0.00 0.00 0.00 73 1015.4
20260902152005 73 176 0.0 0.0 0.00 0.00 0.00 76 1015.5
20260902151005 72 176 0.0 0.0 0.00 0.00 0.00 79 1015.4
20260902150005 70 176 0.0 0.0 0.00 0.00 0.00 87 1015.5
20260902145005 67 176 0.0 0.0 0.00 0.00 0.00 94 1015.5
20260902144005 64 176 0.0 0.0 0.00 0.00 0.00 94 1015.5
20260902143005 61 176 0.0 0.0 0.00 0.00 0.00 94 1015.4
20260902142005 60 176 0.0 0.0 0.00 0.00 0.00 93 1015.2
20260902141005 60 176 0.0 0.0 0.00 0.00 0.00 94 1015.2
20260902140006 59 176 0.0 0.0 0.00 0.00 0.00 93 1015.1
20260902135005 59 176 0.0 0.0 0.00 0.00 0.00 93 1015.0
20260902134005 59 176 0.0 0.0 0.00 0.00 0.00 92 1014.9
20260902132005 59 176 0.0 0.0 0.00 0.00 0.00 92 1014.8
20260902131004 59 176 0.0 0.0 0.00 0.00 0.00 92 1014.8
20260902130006 59 176 0.0 0.0 0.00 0.00 0.00 92 1014.8
20260902125005 59 176 0.0 0.0 0.00 0.00 0.00 92 1014.8
20260902124005 60 176 0.0 0.0 0.00 0.00 0.00 92 1014.8
20260902122004 59 176 0.0 0.0 0.00 0.00 0.00 92 1014.9
20260902121004 59 176 0.0 0.0 0.00 0.00 0.00 91 1014.9
20260902120004 60 176 0.0 0.0 0.00 0.00 0.00 91 1015.0
20260902114004 60 176 0.0 0.0 0.00 0.00 0.00 91 1015.0
20260902113004 60 176 0.0 0.0 0.00 0.00 0.00 91 1015.1
20260902112004 60 176 0.0 0.0 0.00 0.00 0.00 91 1015.2
20260902111004 60 176 0.0 0.0 0.00 0.00 0.00 92 1015.2
20260902110007 60 176 0.0 0.0 0.00 0.00 0.00 91 1015.1
20260902105004 60 176 0.0 0.0 0.00 0.00 0.00 90 1015.0
20260902104004 60 176 0.0 0.0 0.00 0.00 0.00 90 1014.9
20260902103004 60 176 0.0 0.0 0.00 0.00 0.00 90 1015.0
20260902102004 61 176 0.0 0.0 0.00 0.00 0.00 90 1015.0
20260902101003 61 176 0.0 0.0 0.00 0.00 0.00 90 1015.0
20260902095004 61 176 0.0 0.0 0.00 0.00 0.00 90 1015.3
20260902093004 61 176 0.0 0.0 0.00 0.00 0.00 89 1015.1
20260902091004 61 176 0.0 0.0 0.00 0.00 0.00 89 1015.3
20260902090005 62 176 0.0 0.0 0.00 0.00 0.00 89 1015.3
20260902084004 62 176 0.0 0.0 0.00 0.00 0.00 89 1015.2
20260902083003 62 176 0.0 0.0 0.00 0.00 0.00 88 1015.4
20260902081003 62 176 0.0 0.0 0.00 0.00 0.00 88 1015.3
20260902075004 63 176 0.0 0.0 0.00 0.00 0.00 86 1015.4
20260902074004 63 176 0.0 0.0 0.00 0.00 0.00 86 1015.3
20260902073004 64 176 0.0 0.0 0.00 0.00 0.00 86 1015.1
20260902072004 64 176 0.0 0.0 0.00 0.00 0.00 85 1015.1
20260902071004 64 176 0.0 0.0 0.00 0.00 0.00 85 1015.0
20260902070007 65 176 0.0 0.0 0.00 0.00 0.00 85 1014.9
20260902065005 65 176 0.0 0.0 0.00 0.00 0.00 84 1014.9
20260902064004 65 176 0.0 0.0 0.00 0.00 0.00 85 1015.0
20260902063004 65 245 0.0 0.0 0.00 0.00 0.00 85 1014.9
20260902062004 64 246 0.0 0.0 0.00 0.00 0.00 84 1015.1
20260902060005 64 246 0.0 0.0 0.00 0.00 0.00 83 1015.0
20260902055004 64 246 0.0 0.0 0.00 0.00 0.00 81 1014.9
20260902054004 65 246 0.0 0.0 0.00 0.00 0.00 81 1014.8
20260902053005 65 246 0.0 0.0 0.00 0.00 0.00 80 1014.7
20260902052004 66 246 0.0 0.0 0.00 0.00 0.00 80 1014.8
20260902051004 66 246 0.0 0.0 0.00 0.00 0.00 79 1014.7
20260902045004 67 246 0.0 0.0 0.00 0.00 0.00 77 1014.6
20260902044004 67 246 0.0 1.0 0.00 0.00 0.00 78 1014.5
20260902042003 67 245 0.0 0.0 0.00 0.00 0.00 79 1014.4
20260902041003 68 299 0.0 0.0 0.00 0.00 0.00 80 1014.2
20260902040003 68 299 0.0 1.0 0.00 0.00 0.00 80 1014.1
20260902035004 68 58 0.0 1.0 0.00 0.00 0.00 80 1013.8
20260902033005 68 319 0.0 2.0 0.00 0.00 0.00 79 1013.6
20260902032005 68 273 0.0 2.0 0.00 0.00 0.00 78 1013.5
20260902031006 68 245 0.0 2.0 0.00 0.00 0.00 79 1013.6
20260902030004 69 56 0.0 2.0 0.00 0.00 0.00 80 1013.4
20260902025005 69 302 0.0 2.0 0.00 0.00 0.00 78 1013.4
20260902024005 69 56 0.0 1.0 0.00 0.00 0.00 76 1013.3
20260902023004 70 183 0.0 1.0 0.00 0.00 0.00 75 1013.0
20260902022005 70 277 0.0 2.0 0.00 0.00 0.00 74 1013.0
20260902021004 71 269 0.0 2.0 0.00 0.00 0.00 74 1012.9
20260902020004 71 122 0.0 2.0 0.00 0.00 0.00 73 1013.1
20260902015004 72 44 0.0 1.0 0.00 0.00 0.00 72 1013.1
20260902014004 73 55 0.0 4.0 0.00 0.00 0.00 72 1013.1
20260902013004 73 29 0.0 4.0 0.00 0.00 0.00 70 1013.2
20260902012004 75 288 0.0 4.0 0.00 0.00 0.00 68 1013.2
20260902011004 76 332 0.0 2.0 0.00 0.00 0.00 66 1013.3
20260902010005 75 335 0.0 4.0 0.00 0.00 0.00 66 1013.4